Flag for Russia Weather past 2 weeks in Surgut, Russia

Now
36 °F

Sprinkles. Partly cloudy.


Feels Like: 29 °F
Forecast: 36 / 42 °F
Wind: 8 mph from West

Location: Surgut Airport


UV Index: 0 (Low)

Visibility: 4 mi


Pressure: 29.65 "Hg

Humidity: 93%

Dew point: 34 °F

Location of SurgutLocation

Historic Weather in Surgut

°F

Surgut temperature yesterday

Maximum temperature yesterday: 45 °F (at 12:00 AM)
Minimum temperature yesterday: 36 °F (at 6:30 AM)
Average temperature yesterday: 37 °F

Past Weeks' High & Low Weather Summary

 TemperatureHumidityPressure
High55 °F (Apr 18, 2:30 PM)100% (Apr 7, 10:30 PM)30.15 "Hg (Apr 7, 10:30 PM)
Low-2 °F (Apr 11, 5:30 AM)33% (Apr 12, 3:30 PM)28.74 "Hg (Apr 8, 3:00 AM)
Average33 °F67%29.81 "Hg
* Reported Midnight between Apr 4 and Apr 5 — Apr 20 12:30 AM, Surgut, Weather by CustomWeather, © 2014

Note: Actual official high and low records may vary slightly from our data, if they occured in-between our weather recording intervals... More about our weather records

Advertising

Historic Weather Conditions — Data for Previous 24 hours

 ConditionsComfort  
Time TempWeatherWind HumidityBarometerVisibility
12:30 AM
Apr 20
36 °FSprinkles. Partly cloudy.8 mph93%29.65 "Hg4 mi
12:00 AM36 °FSprinkles. Partly cloudy.8 mph93%29.65 "Hg4 mi
11:30 PM
Apr 19
36 °FPartly cloudy.8 mph100%29.65 "Hg4 mi
11:00 PM36 °FSprinkles. Passing clouds.3 mph100%29.68 "Hg4 mi
10:30 PM36 °FSprinkles. Passing clouds.6 mph100%29.68 "Hg4 mi
10:00 PM37 °FSprinkles. Partly cloudy.6 mph93%29.68 "Hg4 mi
9:30 PM37 °FSprinkles. Broken clouds.10 mph93%29.68 "Hg4 mi
9:00 PM37 °FSprinkles. Broken clouds.10 mph87%29.68 "Hg4 mi
8:30 PM37 °FBroken clouds.10 mph87%29.68 "Hg4 mi
8:00 PM39 °FBroken clouds.10 mph81%29.68 "Hg4 mi
7:30 PM39 °FBroken clouds.13 mph81%29.71 "Hg4 mi
7:00 PM39 °FSprinkles. Broken clouds.13 mph81%29.71 "Hg4 mi
6:30 PM39 °FBroken clouds.13 mph81%29.71 "Hg4 mi
6:00 PM37 °FBroken clouds.10 mph87%29.71 "Hg4 mi
5:30 PM36 °FPartly sunny.10 mph93%29.71 "Hg4 mi
5:00 PM36 °FSnow flurries. Partly sunny.13 mph93%29.71 "Hg4 mi
4:30 PM36 °FSnow flurries. Partly sunny.13 mph93%29.71 "Hg4 mi
4:00 PM36 °FSprinkles. Partly sunny.15 mph87%29.68 "Hg4 mi
3:30 PM36 °FOvercast.13 mph93%29.68 "Hg4 mi
3:00 PM36 °FLow clouds.15 mph93%29.68 "Hg4 mi
2:30 PM36 °FFog.15 mph93%29.68 "Hg1 mi
2:00 PM36 °FSprinkles. Fog.13 mph100%29.68 "Hg2 mi
1:30 PM36 °FBroken clouds.13 mph93%29.65 "Hg4 mi
1:00 PM36 °FBroken clouds.10 mph93%29.65 "Hg4 mi
12:30 PM36 °FSprinkles. Fog.6 mph93%29.65 "Hg3 mi
12:00 PM36 °FSprinkles. Broken clouds.10 mph87%29.65 "Hg4 mi
11:30 AM36 °FBroken clouds.8 mph87%29.65 "Hg4 mi
11:00 AM36 °FBroken clouds.8 mph87%29.65 "Hg4 mi
10:30 AM37 °FBroken clouds.8 mph81%29.65 "Hg4 mi
10:00 AM36 °FBroken clouds.8 mph87%29.65 "Hg4 mi
9:30 AM37 °FBroken clouds.8 mph87%29.65 "Hg4 mi
9:00 AM36 °FBroken clouds.6 mph93%29.65 "Hg4 mi
8:30 AM36 °FBroken clouds.3 mph93%29.68 "Hg4 mi
8:00 AM36 °FSprinkles. Broken clouds.6 mph93%29.68 "Hg4 mi
7:30 AM36 °FBroken clouds.6 mph93%29.68 "Hg4 mi
7:00 AM36 °FBroken clouds.6 mph93%29.68 "Hg4 mi
6:30 AM36 °FOvercast.8 mph87%29.68 "Hg4 mi
6:00 AM37 °FOvercast.8 mph81%29.71 "Hg4 mi
5:30 AM37 °FPassing clouds.8 mph81%29.71 "Hg4 mi
5:00 AM37 °FPassing clouds.10 mph81%29.71 "Hg4 mi
4:30 AM37 °FPassing clouds.8 mph87%29.71 "Hg4 mi
4:00 AM39 °FPassing clouds.10 mph81%29.71 "Hg4 mi
3:30 AM39 °FPassing clouds.8 mph87%29.74 "Hg4 mi
3:00 AM41 °FPassing clouds.8 mph81%29.74 "Hg4 mi
2:30 AM41 °FPassing clouds.6 mph87%29.74 "Hg4 mi
2:00 AM41 °FPassing clouds.3 mph87%29.74 "Hg4 mi
1:30 AM41 °FPartly cloudy.3 mph87%29.77 "Hg4 mi
1:00 AM43 °FPartly cloudy.3 mph81%29.77 "Hg4 mi
Weather by CustomWeather, © 2014

See weather overview